Location: Bremen
(53.0709°N, 8.8014°E)
Time: 10:00:30
(UTC+01:00)

ISS - Visible Passes

Search period start: 10 December 2025 00:00
Search period end: 20 December 2025 00:00
Orbit: 416 x 420 km, 51.6° (Epoch: 09 December)

Date Brightness Start Highest point End Pass type
(mag) Time Alt. Az. Time Alt. Az. Time Alt. Az.
13 Dec -0.7 07:15:08 10° S 07:17:27 18° SE 07:19:47 10° E visible
14 Dec -0.6 06:28:13 10° SSE 06:29:42 12° SE 06:31:11 10° ESE visible
15 Dec -1.9 07:14:54 10° SW 07:17:55 31° SSE 07:20:58 10° E visible
16 Dec -1.5 06:27:17 10° SSW 06:30:02 23° SSE 06:32:47 10° E visible
17 Dec -1.2 05:41:17 16° SSE 05:42:09 17° SE 05:44:27 10° ESE visible
17 Dec -2.9 07:15:08 10° WSW 07:18:24 49° SSE 07:21:42 10° E visible
18 Dec -0.3 04:55:38 10° ESE 04:55:38 10° ESE 04:55:41 10° ESE visible
18 Dec -2.6 06:28:35 21° SW 06:30:24 39° SSE 06:33:35 10° E visible
19 Dec -2.0 05:42:43 30° SE 05:42:43 30° SE 05:45:25 10° E visible
19 Dec -3.4 07:15:39 11° WSW 07:18:53 66° S 07:22:14 10° E visible
